EW1669 Weather Reports


time (UTC)temp
F
wind
direction
speed
knots
gust
knots
rain 1hr
in
rain 24hr
in
rain mn
in
humidity
%
barometer
mb
20260503232309 73 201 2.6 12.2 0.00 0.00 0.00 27 1015.6
20260503231756 72 181 0.0 12.2 0.00 0.00 0.00 29 1015.6
20260503231256 73 227 0.0 7.8 0.00 0.00 0.00 28 1015.6
20260503230741 72 208 0.0 13.0 0.00 0.00 0.00 26 1015.6
20260503230236 72 226 1.7 13.0 0.00 0.00 0.00 27 1015.6
20260503225734 72 198 0.0 11.3 0.00 0.00 0.00 27 1015.6
20260503225435 72 214 1.7 13.9 0.00 0.00 0.00 27 1016.0
20260503224927 72 198 2.6 13.9 0.00 0.00 0.00 28 1016.0
20260503224150 72 193 3.5 11.3 0.00 0.00 0.00 28 1016.0
20260503223637 72 196 3.5 12.2 0.00 0.00 0.00 28 1016.0
20260503223137 73 228 0.0 13.9 0.00 0.00 0.00 28 1016.3
20260503222635 73 231 8.7 13.9 0.00 0.00 0.00 28 1016.0
20260503222134 74 197 7.8 13.9 0.00 0.00 0.00 27 1016.0
20260503221839 73 152 0.0 13.9 0.00 0.00 0.00 29 1016.3
20260503221108 73 138 7.8 12.2 0.00 0.00 0.00 29 1016.3
20260503220555 74 220 3.5 13.0 0.00 0.00 0.00 28 1016.3
20260503220041 74 227 7.0 13.0 0.00 0.00 0.00 29 1016.7
20260503215529 74 237 4.3 7.8 0.00 0.00 0.00 29 1016.3
20260503215009 74 220 0.0 8.7 0.00 0.00 0.00 29 1016.7
20260503214707 74 199 0.0 11.3 0.00 0.00 0.00 28 1016.7
20260503214554 74 243 0.9 11.3 0.00 0.00 0.00 29 1017.0
20260503213503 74 217 3.5 9.6 0.00 0.00 0.00 27 1017.0
20260503213002 74 212 0.0 9.6 0.00 0.00 0.00 28 1016.7
20260503212446 73 198 0.9 12.2 0.00 0.00 0.00 29 1017.0
20260503211933 72 213 2.6 12.2 0.00 0.00 0.00 29 1017.3
20260503211433 73 254 0.0 12.2 0.00 0.00 0.00 30 1017.3
20260503210919 73 210 7.8 12.2 0.00 0.00 0.00 30 1017.3
20260503210408 72 211 0.9 13.0 0.00 0.00 0.00 29 1017.3
20260503205908 72 191 5.2 13.0 0.00 0.00 0.00 28 1017.3
20260503205407 74 235 6.1 11.3 0.00 0.00 0.00 27 1017.7
20260503204907 74 203 0.9 9.6 0.00 0.00 0.00 26 1017.3
20260503204402 74 220 0.9 9.6 0.00 0.00 0.00 27 1017.3
20260503203837 74 217 3.5 7.8 0.00 0.00 0.00 26 1018.0
20260503203325 74 207 2.6 9.6 0.00 0.00 0.00 27 1018.0
20260503202817 74 220 1.7 9.6 0.00 0.00 0.00 25 1018.3
20260503202307 74 225 7.0 13.0 0.00 0.00 0.00 26 1018.0
20260503201809 74 175 3.5 13.0 0.00 0.00 0.00 26 1018.3
20260503201301 74 201 0.0 13.0 0.00 0.00 0.00 26 1018.3
20260503200751 74 181 2.6 13.0 0.00 0.00 0.00 25 1018.3
20260503200240 74 218 2.6 13.0 0.00 0.00 0.00 25 1018.7
20260503195951 73 188 0.9 13.0 0.00 0.00 0.00 26 1019.0
20260503195219 73 197 1.7 9.6 0.00 0.00 0.00 28 1018.7
20260503194708 73 164 1.7 11.3 0.00 0.00 0.00 28 1018.7
20260503194208 73 215 5.2 11.3 0.00 0.00 0.00 28 1018.7
20260503193706 73 156 3.5 9.6 0.00 0.00 0.00 28 1018.7
20260503193157 72 206 5.2 13.9 0.00 0.00 0.00 26 1018.7
20260503192645 72 178 6.1 13.9 0.00 0.00 0.00 27 1019.0
20260503192356 73 124 0.9 11.3 0.00 0.00 0.00 27 1019.0
20260503191625 73 190 0.0 11.3 0.00 0.00 0.00 27 1019.0
20260503191325 73 223 0.0 7.0 0.00 0.00 0.00 29 1019.4
20260503190608 72 217 1.7 9.6 0.00 0.00 0.00 29 1019.4
20260503190108 72 209 0.0 12.2 0.00 0.00 0.00 27 1019.4
20260503185557 71 220 0.9 11.3 0.00 0.00 0.00 29 1019.4
20260503185045 70 229 3.5 9.6 0.00 0.00 0.00 29 1019.4
20260503184535 71 209 1.7 6.1 0.00 0.00 0.00 30 1019.7
20260503184024 70 184 0.0 11.3 0.00 0.00 0.00 33 1020.0
20260503183725 69 208 0.9 11.3 0.00 0.00 0.00 33 1019.7
20260503183008 70 204 2.6 9.6 0.00 0.00 0.00 33 1020.0
20260503182508 70 194 0.9 9.6 0.00 0.00 0.00 34 1019.7
20260503182008 69 203 0.9 9.6 0.00 0.00 0.00 34 1020.0
20260503181733 69 149 1.7 11.3 0.00 0.00 0.00 34 1020.0
20260503181008 69 180 0.0 11.3 0.00 0.00 0.00 35 1020.0
20260503180505 68 145 0.0 7.0 0.00 0.00 0.00 36 1020.0
20260503175955 69 141 0.9 11.3 0.00 0.00 0.00 37 1020.4
20260503175444 68 213 3.5 11.3 0.00 0.00 0.00 36 1020.4
20260503174934 68 211 4.3 9.6 0.00 0.00 0.00 37 1020.7
20260503174423 68 236 0.0 9.6 0.00 0.00 0.00 37 1020.4
20260503173909 68 202 0.9 9.6 0.00 0.00 0.00 38 1020.7
20260503173621 68 200 0.9 11.3 0.00 0.00 0.00 38 1020.7
20260503172850 68 188 0.0 11.3 0.00 0.00 0.00 39 1020.7
20260503172348 67 220 1.7 12.2 0.00 0.00 0.00 39 1020.7
20260503171843 67 181 0.9 12.2 0.00 0.00 0.00 39 1020.7
20260503171333 67 214 3.5 8.7 0.00 0.00 0.00 40 1021.1
20260503170822 68 209 0.9 9.6 0.00 0.00 0.00 41 1020.7
20260503170321 67 197 1.7 9.6 0.00 0.00 0.00 40 1021.1
20260503160121 64 194 9.6 11.3 0.00 0.00 0.00 47 1021.7
20260503150936 60 191 6.1 13.0 0.00 0.00 0.00 55 1021.7
20260503150422 60 213 4.3 13.0 0.00 0.00 0.00 57 1021.4
20260503140208 54 213 0.0 7.8 0.00 0.00 0.00 69 1021.7
20260503131022 49 203 0.0 5.2 0.00 0.00 0.00 79 1022.1
20260503130507 49 203 0.0 5.2 0.00 0.00 0.00 80 1021.7
20260503110205 45 200 0.0 0.0 0.00 0.01 0.00 83 1021.1
20260503090337 46 199 0.0 0.0 0.00 0.01 0.00 80 1021.7
20260503081155 47 199 0.0 0.0 0.00 0.01 0.00 78 1021.7
20260503080907 47 199 0.0 0.0 0.00 0.01 0.00 77 1021.7
20260503080132 48 199 0.0 0.0 0.00 0.01 0.00 77 1021.7
20260503072507 48 199 0.0 0.0 0.00 0.01 0.00 77 1022.1
20260503072230 48 199 0.0 0.0 0.00 0.01 0.00 77 1022.1
20260503071459 48 199 0.0 0.0 0.00 0.01 0.00 77 1022.1
20260503071207 48 199 0.0 0.0 0.00 0.01 0.00 76 1022.1
20260503070435 49 199 0.0 0.0 0.00 0.01 0.00 76 1022.1
20260503060306 51 198 0.0 0.0 0.00 0.01 0.00 71 1022.1
20260503054730 50 198 0.0 0.0 0.00 0.01 0.01 70 1022.1
20260503054226 50 198 0.0 0.0 0.00 0.01 0.01 70 1022.4
20260503053721 50 198 0.0 0.0 0.00 0.01 0.01 70 1022.1
20260503053209 50 198 0.0 0.0 0.00 0.01 0.01 69 1022.4
20260503052708 51 198 0.0 0.0 0.00 0.01 0.01 69 1022.4
20260503052206 51 198 0.0 0.0 0.00 0.01 0.01 68 1022.4
20260503051708 51 198 0.0 0.0 0.00 0.01 0.01 67 1022.4
20260503051207 51 198 0.0 0.0 0.00 0.01 0.01 66 1022.4
20260503050703 51 208 0.0 0.0 0.00 0.01 0.01 66 1022.1
20260503050151 51 207 0.0 0.0 0.00 0.01 0.01 66 1022.4
20260503045641 51 207 0.0 0.0 0.00 0.01 0.01 65 1022.4
20260503045131 51 209 0.0 0.0 0.00 0.01 0.01 65 1022.8
20260503044813 52 209 0.0 2.6 0.00 0.01 0.01 62 1022.4
20260503044659 52 209 0.0 0.0 0.00 0.01 0.01 63 1022.4
20260503043607 52 209 0.0 2.6 0.00 0.01 0.01 62 1022.4
20260503043106 52 209 0.0 0.0 0.00 0.01 0.01 61 1022.8
20260503043041 53 210 0.0 0.0 0.00 0.01 0.01 60 1022.1
20260503042045 54 210 0.0 0.0 0.00 0.01 0.01 58 1022.1
20260503041538 54 210 0.0 0.9 0.00 0.01 0.01 57 1022.1
20260503041029 54 215 0.0 1.7 0.00 0.01 0.01 56 1022.4
20260503040505 55 216 0.0 1.7 0.00 0.01 0.01 56 1022.1
20260503035955 55 213 0.0 1.7 0.00 0.01 0.01 55 1022.4
20260503035446 55 217 0.0 1.7 0.00 0.01 0.01 54 1022.4
20260503034937 55 209 0.0 1.7 0.00 0.01 0.01 53 1022.1
20260503034409 56 207 0.9 1.7 0.00 0.01 0.01 51 1022.1
20260503033908 56 220 0.0 0.0 0.00 0.01 0.01 50 1022.1
20260503033634 56 212 0.0 0.0 0.00 0.01 0.01 49 1022.1
20260503032908 57 214 0.0 0.0 0.00 0.01 0.01 48 1022.1
20260503032407 57 214 0.0 0.0 0.00 0.01 0.01 48 1022.4
20260503031857 57 211 0.0 0.0 0.00 0.01 0.01 47 1022.1
20260503031348 58 211 0.0 0.0 0.00 0.01 0.01 46 1022.1
20260503030839 58 212 0.0 0.0 0.00 0.01 0.01 46 1021.7
20260503030330 58 211 0.0 0.0 0.00 0.01 0.01 46 1021.7
20260503030040 58 211 0.0 0.0 0.00 0.01 0.01 46 1021.7
20260503025309 58 211 0.0 0.0 0.00 0.01 0.01 46 1021.7
20260503024802 58 211 0.0 0.0 0.00 0.01 0.01 44 1021.4
20260503024251 59 212 0.0 0.0 0.00 0.01 0.01 43 1021.7
20260503023742 59 212 0.0 0.0 0.00 0.01 0.01 43 1021.4
20260503023500 59 210 0.0 0.0 0.00 0.01 0.01 43 1022.1
20260503022708 59 210 0.0 0.0 0.00 0.01 0.01 42 1021.7
20260503022200 59 210 0.0 0.0 0.00 0.01 0.01 42 1021.7
20260503021649 60 211 0.0 0.0 0.00 0.01 0.01 41 1021.4
20260503021140 60 211 0.0 0.0 0.00 0.01 0.01 41 1021.7
20260503020852 60 214 0.0 0.0 0.00 0.01 0.01 41 1021.7
20260503020122 60 210 0.0 0.0 0.00 0.01 0.01 40 1021.4
20260503015608 61 210 0.0 0.0 0.00 0.01 0.01 39 1021.7
20260503015103 61 211 0.0 0.0 0.00 0.01 0.01 38 1021.7
20260503014552 62 209 0.0 0.0 0.00 0.01 0.01 38 1021.1
20260503014304 62 206 0.0 0.9 0.00 0.01 0.01 37 1021.4
20260503013535 62 216 0.0 0.9 0.00 0.01 0.01 36 1021.4
20260503013025 63 215 0.0 0.9 0.00 0.01 0.01 35 1021.4
20260503012509 63 211 0.0 0.9 0.00 0.01 0.01 35 1021.1
20260503012009 63 208 0.0 2.6 0.00 0.01 0.01 35 1021.1
20260503011732 63 201 0.0 2.6 0.00 0.01 0.01 35 1021.1
20260503011005 64 190 0.0 5.2 0.00 0.01 0.01 35 1021.1
20260503010459 64 179 0.0 5.2 0.00 0.01 0.01 34 1021.1
20260503005948 64 213 0.0 0.0 0.00 0.01 0.01 33 1021.1
20260503005440 64 190 0.0 1.7 0.00 0.01 0.01 33 1021.1
20260503004931 64 191 0.0 1.7 0.00 0.01 0.01 33 1021.1
20260503004406 64 204 0.0 2.6 0.00 0.01 0.01 32 1021.1
20260503003856 64 183 0.0 0.0 0.00 0.01 0.01 33 1021.1
20260503003346 65 201 0.0 0.0 0.00 0.01 0.01 32 1021.1
20260503003055 65 188 0.0 0.9 0.00 0.01 0.01 32 1021.1
20260503002327 65 204 0.0 0.9 0.00 0.01 0.01 31 1021.1
20260503001818 65 167 0.0 1.7 0.00 0.01 0.01 31 1021.1
20260503001308 65 178 0.0 6.1 0.00 0.01 0.01 31 1021.1
20260503000759 65 181 0.0 6.1 0.00 0.01 0.01 32 1021.1
20260503000249 66 170 0.0 5.2 0.00 0.01 0.01 31 1021.1
20260502235739 66 207 0.0 5.2 0.00 0.01 0.01 31 1021.1
20260502235457 66 200 0.0 3.5 0.00 0.01 0.01 32 1021.4
20260502234720 66 196 0.0 3.5 0.00 0.01 0.01 32 1021.4
20260502234209 66 223 1.7 2.6 0.00 0.01 0.01 30 1021.4
20260502233707 66 187 0.0 2.6 0.00 0.01 0.01 31 1021.4
20260502233206 66 225 0.9 2.6 0.00 0.01 0.01 31 1021.1
20260502232707 67 196 0.0 2.6 0.00 0.01 0.01 30 1021.4